星链-30276 (STARLINK-30276 )

导读

STARLINK-30276是美国SpaceX星链星座的v2 Mini卫星,于2023年8月17日发射入轨。星链是全球规模最大的低轨卫星互联网星座,旨在为全球提供高速宽带接入,覆盖偏远地区并支持各类商用、军用通信服务。该卫星是SpaceX批量部署星链网络的一部分,助力星链完成全球覆盖,支撑SpaceX火星探索计划的资金与技术布局,推动全球卫星互联网的普及应用。

基本信息
目录编号:
57652
目录名称:
STARLINK-30276
国际标识:
2023-122W
轨道中心:
EARTH
卫星名称:
星链-30276
卫星全名:
星链-30276 (STARLINK-30276 )
卫星状态:
在轨 (已飞行1036 天)
发射日期:
2023-08-17 UTC
国别 :
美国 (US)
星等 :
--
轨道信息
数据来源 国际轨道数据
星历时间: 2026-06-17T06:17:49+0800
1天前
查看轨道信息
半长轴: 6861.197km
偏心率: 0.000096
轨道倾角: 43.003°
近地点辐角 269.111°
升交点赤经 252.107°
平近点角 90.963°
近地点: 482.401km
远地点: 483.719km
周期: 94.267分钟
每日圈数: 15.275764
详细信息
固有亮度:
5
最大亮度:
0.3
卫星平台:
Starlink v2.0 mini
覆盖范围:
全球
运营商:
太空探索技术公司
运营商所在国:
美国
制造商(研发单位):
太空探索技术公司
制造商所在国:
美国
使用方式:
暂无
卫星简介
星链(Starlink)计划是由太空探索技术公司(SpaceX)提出的一个巨型低轨卫星互联网星座项目,计划在2019年至2024年间在太空搭建由约1.2万颗卫星组成的“星链”网络,其中1584颗将部署在地球上空550千米处的近地轨道,并从2020年开始工作。该卫星仍在工作。
2D轨道图
3D轨道图
轨道高度分析图
轨道倾角分析图
轨道综合分析图
查看轨道综合分析图